This is the latest recevied weather packets stored in our database for station/object WD9EKA. If no packets are shown the sender has not sent any weather packets the latest 10 day(s).
| Time | Temp. | Humidity | Pressure | Rain* | Wind** | Luminosity | Snow |
|---|---|---|---|---|---|---|---|
| 1777978838 | 12.22° C | 99% | 1002.5 hPa | 0 mm | - | - | - |
| 1777978518 | 12.22° C | 99% | 1002.3 hPa | 0 mm | - | - | - |
| 1777978197 | 12.22° C | 99% | 1002.6 hPa | 0 mm | - | - | - |
| 1777977877 | 12.22° C | 99% | 1002.2 hPa | 0 mm | - | - | - |
| 1777977558 | 12.78° C | 99% | 1002.3 hPa | 0 mm | - | - | - |
| 1777977238 | 12.78° C | 99% | 1002 hPa | 0 mm | - | - | - |
| 1777976918 | 12.78° C | 99% | 1002.3 hPa | 0 mm | - | - | - |
| 1777976597 | 12.78° C | 99% | 1002 hPa | 0 mm | - | - | - |
| 1777976278 | 12.22° C | 99% | 1001.6 hPa | 0 mm | - | - | - |
| 1777975957 | 12.22° C | 99% | 1001.2 hPa | 0 mm | - | - | - |
| 1777975637 | 12.22° C | 99% | 1001.3 hPa | 0.25 mm | - | - | - |
| 1777975318 | 12.22° C | 99% | 1001.2 hPa | 0.25 mm | - | - | - |
| 1777974998 | 12.22° C | 99% | 1001.4 hPa | 0.25 mm | - | - | - |
| 1777974662 | 12.22° C | 99% | 1001.6 hPa | 0.51 mm | - | - | - |
| 1777974342 | 12.22° C | 99% | 1001.3 hPa | 0.76 mm | - | - | - |
| 1777974022 | 12.22° C | 99% | 1000.7 hPa | 1.02 mm | - | - | - |
| 1777973686 | 12.22° C | 99% | 1000.3 hPa | 1.52 mm | - | - | - |
| 1777973366 | 12.22° C | 99% | 1000.9 hPa | 1.78 mm | - | - | - |
| 1777973046 | 12.22° C | 99% | 1001.3 hPa | 2.03 mm | - | - | - |
| 1777972407 | 12.78° C | 99% | 1001.3 hPa | 2.79 mm | - | - | - |
| 1777972086 | 12.22° C | 99% | 1001.2 hPa | 2.79 mm | - | - | - |
| 1777971766 | 12.22° C | 99% | 1001.4 hPa | 3.05 mm | - | - | - |
| 1777971446 | 12.22° C | 99% | 1001.4 hPa | 3.05 mm | - | - | - |
| 1777971126 | 12.22° C | 99% | 1002.1 hPa | 3.3 mm | - | - | - |
| 1777970806 | 12.22° C | 99% | 1002.5 hPa | 3.56 mm | - | - | - |
* Rain latest hour (hover to see other rain measurements)
** Current wind speed in m/s (hover to see current wind gust speed)